Regional Weather Roundup
Issued by NWS

Home | Current Version | Previous Version | Graphics & Text | Print | Product List | Glossary On
Versions: 1 2 3 4 5 6 7 8 9 10 11 12 13 14 15 16 17 18 19 20 21 22 23 24 25 26 27 28 29 30 31 32 33 34 35 36 37 38 39 40 41 42 43 44 45 46 47 48 49 50
468
ASUS43 KIND 212309
RWRIN

WEATHER ROUNDUP FOR INDIANA
NATIONAL WEATHER SERVICE INDIANAPOLIS IN
700 PM EDT FRI JUL 21 2017

NOTE: "FAIR" INDICATES FEW OR NO CLOUDS BELOW 12,000 FEET WITH NO
SIGNIFICANT WEATHER AND/OR OBSTRUCTIONS TO VISIBILITY.

* - STATION DOES NOT REPORT WEATHER SUCH AS PRECIPITATION OR FOG.

+ - STATION NOT QUALITY CONTROLLED BY THE NATIONAL WEATHER SERVICE.
    USE DATA WITH CAUTION...ESPECIALLY DEWPOINT AND RELATIVE
    HUMIDITY OBSERVATIONS.

INZ001>003-010>013-019-020-220000-
NORTHWEST INDIANA

CITY           SKY/WX    TMP DP  RH WIND       PRES   REMARKS
GARY /AIRPORT/ PTSUNNY   86  72  62 SE7       29.92F
KNOX *+        FAIR      82  72  69 S3        29.94F
LA PORTE +     FAIR      82  73  73 CALM      29.94F
MICHIGAN CITY+ FAIR      82  72  69 CALM      29.94S
MONTICELLO +   FAIR      85  74  70 CALM      29.93F
RENSSELAER +   FAIR      86  73  66 SE6       29.92F
VALPARAISO     PTSUNNY   84  76  76 E5        29.93F

$$

LMZ046-743>745-220000-
SOUTHERN LAKE MICHIGAN

STATION/POSITION TIME  TEMP    WIND        PRES    WAVE
                       AIR SEA DIR/SP/G            HT
                 (UTC) (F)     (DEG/KT/KT) (MB)    (FT)
BURNS HARBOR     2230   84     190/ 10/ 12 1013.5F
MICHIGAN CITY    2240   78     360/  9/ 10   N/A
5NW MICH CITY    2300   77 77   30/  8/ 12   N/A     1

$$

INZ004-005-014>016-021>024-220000-
NORTH CENTRAL INDIANA

CITY           SKY/WX    TMP DP  RH WIND       PRES   REMARKS
ELKHART        FAIR      84  66  54 CALM      29.95F
GOSHEN         FAIR      84  66  54 SW7       29.95F
LOGANSPORT +   FAIR      82  72  69 SE3       29.95F
PERU/GRISSOM   FAIR      85  74  68 S6        29.94F
ROCHESTER +    FAIR      86  72  62 S7        29.95F
SOUTH BEND     FAIR      84  68  58 S5        29.94F
WARSAW +       FAIR      82  70  65 SW3       29.96S

$$

INZ006>009-017-018-025>027-220000-
NORTHEAST INDIANA

CITY           SKY/WX    TMP DP  RH WIND       PRES   REMARKS
AUBURN +       FAIR      86  68  54 SW5       29.96F
FORT WAYNE     FAIR      84  66  54 S8        29.96F
HUNTINGTON +   FAIR      81  69  67 SW6       29.96F
KENDALLVILLE + FAIR      85  68  57 SW7       29.96F

$$

INZ028-029-035-036-043>045-051>053-220000-
WEST CENTRAL INDIANA

CITY           SKY/WX    TMP DP  RH WIND       PRES   REMARKS
GREENCASTLE +  FAIR      88  77  70 CALM      29.94F HX 100
LAFAYETTE      FAIR      86  77  74 SE5       29.92F HX  97
TERRE HAUTE    FAIR      89  77  67 NE5       29.91F HX 101

$$

INZ030>032-037>040-046>048-054>057-064-065-220000-
CENTRAL INDIANA

CITY           SKY/WX    TMP DP  RH WIND       PRES   REMARKS
CP ATTERBURY + FAIR      86  75  70 NE5       29.95S HX  95
COLUMBUS       MOSUNNY   84  77  79 NE6       29.94F
FRANKFORT +    PTSUNNY   88  77  70 CALM      29.97S HX 100
GREENWOOD *+   FAIR      87  72  62 E6        29.96F
INDIANAPOLIS   PTSUNNY   89  72  56 CALM      29.93F HX  96
-EAGLE CREEK   FAIR      88  73  61 E3        29.94F HX  95
KOKOMO +       FAIR      84  75  74 S5        29.97F
MARION +       FAIR      82  72  69 CALM      29.97F
MT COMFORT *+  FAIR      84  73  70 E6        29.97F
SHELBYVILLE    FAIR      85  75  72 E5        29.95F
ZIONSVILLE +   FAIR      84  74  71 E6        29.96F

$$

INZ033-034-041-042-049-050-058-059-220000-
EAST CENTRAL INDIANA

CITY           SKY/WX    TMP DP  RH WIND       PRES   REMARKS
MUNCIE         FAIR      86  73  65 CALM      29.97F
RICHMOND +     PTSUNNY   81  72  74 N3        30.00F

$$

INZ060-061-067>069-081>083-085>088-220000-
SOUTHWEST INDIANA

CITY           SKY/WX    TMP DP  RH WIND       PRES   REMARKS
EVANSVILLE     FAIR      96  73  47 SW16      29.91F HX 105
HUNTINGBURG *+ FAIR      93  78  61 S8        29.92F HX 108

$$

INZ062-063-066-070>080-084-089>092-220000-
SOUTH CENTRAL AND SOUTHEAST INDIANA

CITY           SKY/WX    TMP DP  RH WIND       PRES   REMARKS
BEDFORD +      FAIR      91  73  55 SW6       29.93F HX 100
BLOOMINGTON    FAIR      91  75  59 SW5       29.93F HX 101
MADISON *+     FAIR      91  72  52 W3        29.97S HX  98
NORTH VERNON + FAIR      90  75  62 SW7       29.94F HX 100
SEYMOUR +      FAIR      93  75  55 SW6       29.93S HX 104

$$





USA.gov is the U.S. government's official web portal to all federal, state and local government web resources and services.